User: anonymous   Login
Location: Rancho Del Sol Observatory
(38.7214°N, 120.6350°W)
Time: 01:38:41
(UTC-08:00)
Language:

Cosmos 2221 Rocket - Orbit

View from above orbital plane
View from above orbital plane
View from above satellite
View from above satellite

Ground track
Ground track

The orbit data is extracted from the following two-line orbital elements,

1 22237U 92080B   14351.73314030  .00000584  00000-0  77661-4 0  5196
2 22237 082.5129 246.3700 0018454 311.1124 070.7058 14.78003703188649
Epoch (UTC): 17 December 2014 17:35:43
Eccentricity: 0.0018454
inclination: 82.5129°
perigee height: 622 km
apogee height: 648 km
right ascension of ascending node: 246.3700°
argument of perigee: 311.1124°
revolutions per day: 14.78003703
mean anomaly at epoch: 70.7058°
orbit number at epoch: 18864

The dashed part of the orbit path shows where the satellite is in the earth's shadow,  

DLR